Other Public Products
Issued by NWS Grand Forks, ND

Home | Current Version | Previous Version | Graphics & Text | Print | Product List | Glossary On
Versions: 1 2 3 4 5 6 7 8 9 10 11 12 13 14 15 16 17 18 19 20 21 22 23 24 25 26 27 28 29 30 31 32 33 34 35 36 37 38 39 40 41 42 43 44 45 46 47 48 49 50
000
FPUS83 KFGF 250210
OPUFGF
PRAIRIE TO PINES WEATHER ROUNDUP
NATIONAL WEATHER SERVICE EASTERN NORTH DAKOTA/GRAND FORKS ND
900 PM CDT THU JUL 24 2014

 **SATELLITE DATA USED TO AUGMENT SKY COVER AT AUTOMATED STATIONS**
 *****  WEATHER ACROSS EASTERN NORTH DAKOTA  *****

CITY           SKY/WX    TMP DP  RH WIND       PRES   REMARKS
GRAND FORKS    CLOUDY    72  61  68 SE16      29.75F
GRAND FORKS AF CLOUDY    71  64  79 E8        29.77R
GRAND CITY NWS   N/A     70 N/A N/A SE20        N/A
BUXTON         NOT AVBL
DEVILS LAKE    CLOUDY    72  63  73 SE12      29.73F
FARGO          MOCLDY    73  62  68 SE24G33   29.74F
WAHPETON ARPT  CLOUDY    68  61  77 E8        29.89R
$$

 *****  WEATHER ACROSS CENTRAL AND WESTERN NORTH DAKOTA  *****

CITY           SKY/WX    TMP DP  RH WIND       PRES   REMARKS
JAMESTOWN      PTCLDY    71  63  75 SE23G31   29.70F
BISMARCK       PTCLDY    76  65  68 SE20G28   29.68F
MINOT          CLOUDY    73  66  78 E5        29.71R
MINOT AFB      MOCLDY    72  70  94 E5        29.71R
GARRISON         N/A     72  67  84 SE7       29.68S
WILLISTON      CLOUDY    80  67  64 VRB3      29.66R
DICKINSON      CLOUDY    73  67  81 SE16      29.66F
HETTINGER      CLOUDY    79  67  66 E15       29.70F
$$

 *****  OTHER OBSERVATIONS NORTHEAST NORTH DAKOTA  *****

CITY           SKY/WX    TMP DP  RH WIND       PRES   REMARKS
WALHALLA         N/A     70  64  83 SE10        N/A
LANGDON        FAIR      66  61  82 SE12      29.78R
CAVALIER       FAIR      72  63  73 SE5       29.76F
GRAFTON        FAIR      72  63  73 SE12      29.76R
CANDO          CLOUDY    70  64  83 SE10      29.75F
FORT TOTTEN      N/A     69  63  81 E5        29.95
ROLLA          CLOUDY    68  66  94 SE8       29.78R
RUGBY          FAIR      70  68  94 SE6       29.73R
 ***** THE ABOVE OBSERVATIONS ARE NON NWS ARE NOT QUALITY
        CONTROLLED AND MAY MIS-REPORT RAIN FOR SNOW...
$$

 *****  OTHER OBSERVATIONS SOUTHEAST NORTH DAKOTA *****

CITY           SKY/WX    TMP DP  RH WIND       PRES   REMARKS
COOPERSTOWN    NOT AVBL
VALLEY CITY    FAIR      70  68  94 S18G29    29.73F
OAKES          NOT AVBL
GWINNER        CLOUDY    72  66  83 E10       29.85F
BUFFALO        NOT AVBL
WYNDMERE       NOT AVBL
 ***** THE ABOVE OBSERVATIONS ARE NON NWS ARE NOT QUALITY
       CONTROLLED AND MAY MIS-REPORT RAIN FOR SNOW...
$$

  *****  WEATHER ACROSS NORTHERN MINNESOTA  *****

CITY           SKY/WX    TMP DP  RH WIND       PRES   REMARKS
FLAG ISLAND    MOCLDY    72  61  68 S6        29.86F
WARROAD        CLOUDY    70  64  83 SE8       29.87F
ROSEAU         CLOUDY    68  63  83 E7        29.85F
HALLOCK        PTCLDY    72  63  73 E9        29.77F
THF RVR FALLS  PTCLDY    72  59  64 SE14      29.80F
HALSTAD          N/A     71  61  70 S18         N/A
FOSSTON        PTCLDY    70  57  64 SE7       29.86F
BAUDETTE       CLOUDY    68  60  75 CALM      29.90F
WASKISH        LGT RAIN  66  63  88 CALM      29.91F
CROOKSTON      MOCLDY    72  61  68 SE14      29.75F
$$
  *****  WEATHER ACROSS CENTRAL AND WEST MINNESOTA  *****

CITY           SKY/WX    TMP DP  RH WIND       PRES   REMARKS
BEMIDJI        NOT AVBL
PARK RAPIDS    PTCLDY    71  59  65 SE8       29.92F
WADENA         CLOUDY    70  61  73 CALM      29.94R
DETROIT LAKES  MOCLDY    70  61  73 SE7       29.91F
MOORHEAD       MOCLDY    72  64  78 SE16      29.81F
FERGUS FALLS   CLOUDY    70  57  64 E3        29.91R
ELBOW LAKE     NOT AVBL
MORRIS MN      PTCLDY    66  63  88 E7        29.88R
STAPLES        CLOUDY    70  59  68 CALM      29.95R
WHEATON        PTCLDY    66  63  88 E7        29.87S
$$
  *****  WEATHER ELSEWHERE ACROSS MINNESOTA  *****

CITY           SKY/WX    TMP DP  RH WIND       PRES   REMARKS
DULUTH         MOCLDY    69  59  70 CALM      29.97S
INTRNTL FALLS  MOCLDY    64  59  83 CALM      29.92F
ELY            CLOUDY    66  55  68 S3        29.95F
CLOQUET        MOCLDY    70  57  64 CALM      29.97S
BRAINERD       CLOUDY    71  60  68 CALM      29.95R
HIBBING        CLOUDY    65  59  81 S3        29.95F
ALEXANDRIA     CLOUDY    69  62  78 E6        29.94R
SAINT CLOUD    CLEAR     71  62  73 S3        29.93R
MINNEAPOLIS    PTCLDY    76  59  55 SW6       29.92S
$$

  *****  WEATHER ACROSS SOUTH DAKOTA  *****

CITY           SKY/WX    TMP DP  RH WIND       PRES   REMARKS
SIOUX FALLS    MOCLDY    70  63  78 S14       29.83F
BROOKINGS      NOT AVBL
WATERTOWN      CLEAR     68  58  70 SE12G23   29.83R
HURON          CLEAR     72  62  71 SE17G28   29.71F
SISSETON         N/A     70  64  81 S8        29.81F
ABERDEEN       CLEAR     72  62  71 SE14G24   29.77F
MITCHELL       PTCLDY    76  64  66 SE23G35   29.74F
PIERRE         MOCLDY    86  70  58 SE20      29.58F HX  90
MOBRIDGE       CLOUDY    73  65  75 E21G28    29.66F
RAPID CITY     CLEAR     84  73  69 VRB3      29.69S HX  90
$$

  *****  SOME WEATHER IN NEARBY STATES *****

CITY           SKY/WX    TMP DP  RH WIND       PRES   REMARKS
GLASGOW MT     CLEAR     72  37  28 NW20G29   29.77R
GREAT FALLS MT CLEAR     67  31  26 W23G31    29.92R
CHEYENNE WY    CLEAR     81  48  31 W12       30.09R
SCOTTSBLUFF NE MOCLDY    78  60  53 SE10      29.87F
OMAHA NE       MOCLDY    76  60  57 SE18      29.93F
DES MOINES IA  CLOUDY    72  61  68 S15G28    29.89F
DAVENPORT IA   CLOUDY    68  58  70 S7        30.03F
CHICAGO IL     MOCLDY    67  42  40 E8        30.06F
EAU CLAIRE WI  CLEAR     72  58  61 SE7       29.95S
LA CROSSE WI   MOCLDY    74  59  59 SE7       29.94R
$$

  *****  SOME NATIONAL WEATHER *****

CITY           SKY/WX    TMP DP  RH WIND       PRES   REMARKS
LA GUARDIA NY  MOCLDY    76  56  49 N9        29.88R
RALEIGH NC     TSTM      70  68  93 E8        29.93F
ATLANTA GA     MOCLDY    73  70  90 SW3       29.98R
NEW ORLEANS LA PTCLDY    82  75  79 S8        29.96R
OKLAHOMA CITY  PTCLDY    83  70  64 SE8       29.98R
ALBUQUERQUE NM PTCLDY    88  38  17 S9        30.15S
SALT LAKE CITY MOCLDY    90  33  13 N8        29.94F
LOS ANGELES CA MOSUNNY   74  60  61 W15       29.75S
BOISE ID       SUNNY     75  23  14 NW10      30.07S
SEATTLE WA     PTSUNNY   62  55  77 NE12      30.21S
$$

*** WEATHER ACROSS MANITOBA...SASKATCHEWAN AND ONTARIO ***
                ***ONTARIO***

CITY           SKY/WX    TMP DP  RH WIND       PRES   REMARKS
GERALDTON      PTCLDY    64  52  63 SW6       29.89F
THUNDER BAY    MOCLDY    64  55  72 W2        29.93R
SIOUX LOOKOUT  PTCLDY    57  54  88 CALM      29.91F
TORONTO        CLEAR     64  43  45 NE3       30.03R
BIG TROUT LK   CLEAR     68  55  64 N3        29.76S
PICKLE LAKE    PTCLDY    72  45  37 W7        29.85F
DRYDEN         CLEAR     68  55  64 SW6       29.91F
KENORA         MOCLDY    68  55  64 S2        29.90F
$$
                *** MANITOBA***

CITY           SKY/WX    TMP DP  RH WIND       PRES   REMARKS
BRANDON        PTCLDY    70  63  78 SE10      29.73F
DAUPHIN        CLEAR     70  63  78 SE10      29.74F
ISLAND LAKE    PTCLDY    70  57  64 W2        29.82F
PILOT MOUND      N/A     66  61  82 SE12        N/A
THE PAS        MOCLDY    72  59  64 E10       29.72F
THOMPSON       PTCLDY    75  57  53 SW5       29.79F
WINNIPEG       PTCLDY    72  59  64 SE15      29.79F
LYNN LAKE      CLEAR     77  50  38 SE6       29.78F
CHURCHILL      PTCLDY    55  48  76 E6        29.88F
GILLAM         MOCLDY    70  55  60 E6        29.81S SMOKE
$$
                ***SASKATCHEWAN***

CITY           SKY/WX    TMP DP  RH WIND       PRES   REMARKS
ESTEVAN        TSTM      72  66  83 S7        29.77R
KINDERSLEY     PTCLDY    59  54  82 S13G20    29.64F
LLOYDMINSTER   LGT RAIN  55  52  88 SE3       29.59F
PRINCE ALBERT  TSTM      70  66  88 E12       29.61S
REGINA         LGT RAIN  61  59  94 VRB8G25   29.68F
YORKTON        PTCLDY    68  61  77 S7        29.73R


USA.gov is the U.S. government's official web portal to all federal, state and local government web resources and services.